Location: Blankensee
(53.5126°N, 14.3055°E)
Time: 19:01:40
(UTC+00:00)

Cosmos 2098 Rocket - Pass Details

Date: 08 August 2020
Orbit: 367 x 1184 km, 82.9° (Epoch: 20 September)

Event Time Altitude Azimuth Distance (km) Brightness Sun altitude
Rises 02:13:59 0° 343° (NNW) 2,882 6.9 -9.9°
Reaches altitude 10° 02:16:06 10° 335° (NNW) 2,088 6.0 -9.7°
Maximum altitude 02:20:26 39° 267° (W) 1,143 4.1 -9.2°
Drops below altitude 10° 02:25:47 10° 201° (SSW) 2,579 5.7 -8.6°
Enters shadow 02:27:00 - 197° (SSW) 3,027 6.1 -8.5°
